Wind_Speed
13 16 19 21 24 27 29 32 34 35 35 36 38 40 41 42 42 42 42 42 41 40 39 39 38 37 36 35 34 33 32 31 30 29 28 27 26 24
10 13 16 19 21 24 26 29 32 34 35 36 38 39 42 43 43 43 43 43 43 42 42 42 41 40 39 38 37 36 35 33 32 32 31 29 28 27
10 11 13 16 18 22 24 27 30 31 33 36 39 40 42 43 44 44 44 45 44 45 45 44 43 43 43 42 40 39 38 36 35 34 33 32 31 30
10 10 11 13 15 18 21 24 27 29 32 36 39 40 43 44 44 44 45 45 46 46 46 46 46 45 45 45 44 43 41 39 38 37 36 35 34 33
10 10 11 12 14 16 18 21 24 27 30 34 37 40 42 44 45 45 45 45 46 47 46 47 47 48 47 46 45 45 44 43 42 40 39 38 37 36
11 10 10 11 13 15 16 19 21 24 26 30 34 38 41 43 45 46 46 47 47 47 48 48 47 48 48 47 48 47 46 46 45 44 42 41 40 39
12 11 11 11 12 14 15 17 19 21 23 26 30 34 38 41 43 45 47 47 48 48 49 49 48 48 48 48 48 48 47 47 47 46 45 44 42 41
13 13 12 12 12 13 13 15 17 18 20 22 25 29 33 36 40 43 45 47 47 48 49 50 50 50 49 49 48 48 48 48 47 47 46 45 44 43
14 14 13 13 13 13 14 14 15 16 18 19 21 23 27 31 34 37 41 43 45 46 49 48 49 49 50 50 49 49 49 49 48 48 47 46 45 43
15 15 14 14 13 13 14 14 15 15 16 18 19 21 23 26 29 32 35 39 42 44 45 45 46 47 48 49 49 48 48 48 48 48 48 49 48 46
16 15 15 15 14 14 14 14 14 14 15 16 18 20 21 23 26 28 30 32 35 39 41 41 43 44 44 45 46 47 46 48 49 49 49 49 48 48
16 16 15 15 15 15 14 14 14 14 14 15 16 18 20 22 23 25 27 29 31 34 37 39 40 42 43 44 45 46 46 46 46 46 46 47 47 47
17 17 16 16 15 15 15 15 15 14 15 15 15 16 18 21 22 24 26 27 29 31 33 36 37 39 41 42 44 44 45 45 46 46 46 46 47 47
18 18 17 17 16 16 15 15 15 16 15 15 16 16 17 19 21 23 24 26 28 29 31 34 35 37 38 40 42 44 45 45 45 46 47 47 46 46
18 18 18 17 17 17 16 16 16 16 16 16 16 17 17 18 19 21 23 25 26 28 29 31 33 36 38 39 40 42 44 45 45 45 45 46 46 46
19 19 19 18 18 18 17 18 17 17 17 17 17 17 18 18 19 20 21 22 24 26 28 29 31 33 35 37 38 39 41 42 44 45 45 45 45 46
20 20 20 20 19 19 19 19 19 19 19 18 18 18 18 19 20 20 21 21 23 25 27 29 31 33 34 35 36 37 38 39 41 42 43 44 44 43
22 22 22 21 21 20 20 20 20 20 20 20 20 20 20 21 22 22 22 22 23 24 26 27 29 30 33 35 36 37 37 38 40 41 42 43 44 44
23 23 23 22 22 22 22 22 22 22 22 22 22 22 22 22 23 23 24 24 25 25 26 27 29 30 31 33 34 36 36 38 39 40 42 42 43 43
24 24 24 24 24 24 24 25 25 25 24 24 24 24 24 24 25 25 25 26 26 27 27 28 29 30 31 32 32 33 35 37 38 38 39 40 41 41
26 26 26 26 26 27 27 27 27 28 28 28 28 27 27 27 27 28 28 28 28 29 28 29 29 30 31 31 31 32 33 35 36 37 37 38 38 39
28 28 29 29 29 30 30 30 30 31 31 31 31 32 32 32 31 31 31 31 31 31 31 31 31 31 31 31 31 31 32 33 35 36 37 37 38 38
30 31 31 31 32 32 33 34 34 35 35 35 35 36 36 36 36 36 36 35 35 35 34 34 33 33 33 34 33 33 33 34 34 35 35 36 37 37
Wind_Direction
263 255 250 246 243 242 241 239 238 237 236 234 235 235 235 234 233 233 233 234 234 235 236 237 239 239 239 240 241 243 245 246 247 248 251 254 256 261
278 264 256 252 248 245 244 243 241 239 238 238 238 236 235 234 234 235 235 235 236 237 238 239 240 241 241 241 243 244 246 247 248 250 251 254 256 260
293 280 267 259 254 251 248 247 245 243 239 238 239 238 238 236 236 237 237 237 238 238 239 240 241 241 242 242 243 244 246 247 249 250 251 253 256 259
304 292 281 270 262 257 253 250 248 245 242 240 240 239 238 238 238 238 238 238 238 239 240 241 242 242 243 243 243 244 246 247 248 249 252 254 256 258
316 304 293 282 273 266 261 256 253 250 247 243 242 240 239 238 238 237 237 238 239 240 242 242 243 243 243 243 244 244 246 247 248 249 251 253 255 257
328 317 304 294 285 276 270 265 261 257 251 247 244 242 240 240 239 239 238 239 239 240 241 242 244 245 243 243 244 245 246 247 248 249 250 252 254 256
335 329 319 307 297 288 280 275 270 265 257 252 248 245 244 242 242 241 240 240 240 241 241 242 244 245 244 244 245 245 245 246 248 249 250 252 255 256
336 332 328 320 310 302 293 286 280 272 264 258 253 249 248 247 246 244 243 242 243 243 244 244 244 244 246 246 246 246 246 247 248 248 249 251 253 255
336 332 329 323 315 308 301 294 290 282 271 263 258 255 253 251 250 248 246 245 245 246 246 246 246 246 246 246 246 246 247 248 248 249 249 251 252 254
334 332 329 326 321 314 308 301 294 288 278 270 264 260 258 256 254 252 251 249 248 248 249 249 249 249 247 247 247 248 248 248 249 249 248 249 251 252
334 331 328 325 323 318 315 310 302 295 286 278 272 266 263 260 258 256 253 251 250 250 249 249 248 249 248 246 246 247 248 248 249 248 249 250 251 252
330 330 329 325 322 320 317 314 310 303 295 287 280 272 267 262 260 258 256 254 252 251 250 250 250 250 249 248 247 248 248 248 248 248 248 249 250 252
325 326 326 325 322 320 318 315 312 308 302 295 287 280 273 267 263 262 260 257 254 252 251 251 251 250 249 248 248 250 250 249 249 249 249 248 249 250
321 322 321 321 320 319 317 315 312 309 305 299 292 286 281 274 270 268 265 260 256 254 253 252 252 251 250 249 248 249 250 250 251 252 251 249 248 249
316 317 317 316 316 314 313 312 312 310 307 301 297 292 287 282 276 274 271 265 261 258 257 255 254 253 252 251 250 249 250 251 251 251 252 251 250 250
310 311 311 310 310 310 309 307 307 307 305 302 298 294 290 286 282 278 274 270 266 263 262 259 257 257 255 254 252 252 252 251 251 251 251 251 251 251
308 307 307 306 305 304 305 304 303 302 301 299 296 293 291 288 285 284 280 275 271 267 266 265 262 260 258 256 256 255 254 252 251 251 252 252 251 251
304 304 303 303 303 303 302 302 302 301 299 297 295 292 291 289 287 285 283 281 277 271 268 268 266 263 261 259 258 257 256 255 253 252 252 252 252 252
302 301 301 301 301 300 300 300 300 299 298 297 295 293 290 289 287 286 284 282 279 275 272 271 270 268 265 263 261 258 257 256 255 254 253 252 253 252
299 298 298 298 298 299 298 298 298 297 296 295 293 292 291 289 286 285 283 283 281 278 276 273 271 270 268 266 263 261 258 257 257 256 255 254 253 252
297 296 296 296 296 296 296 296 296 296 295 294 292 290 289 288 286 284 282 281 280 278 277 275 273 271 269 267 265 262 260 259 258 257 256 254 252 251
295 295 295 295 294 294 294 294 294 294 294 293 292 290 289 287 285 283 281 279 278 277 275 274 273 271 270 268 266 263 261 260 259 257 255 254 252 251
294 294 294 294 293 293 293 293 292 292 292 291 290 289 287 286 284 283 281 279 277 275 273 272 271 270 269 268 266 264 262 261 260 258 256 254 252 251
Height
5760 5761 5762 5764 5767 5770 5772 5776 5779 5783 5786 5790 5793 5798 5802 5806 5810 5815 5819 5823 5827 5831 5835 5839 5842 5845 5848 5851 5854 5857 5859 5861 5864 5866 5867 5869 5870 5871
5756 5757 5758 5759 5761 5763 5766 5768 5771 5775 5778 5781 5784 5788 5793 5798 5801 5806 5810 5814 5818 5822 5826 5830 5834 5837 5840 5843 5846 5849 5852 5854 5856 5859 5860 5862 5864 5865
5753 5753 5753 5754 5755 5757 5759 5761 5764 5766 5770 5773 5775 5779 5783 5787 5792 5796 5800 5804 5808 5812 5816 5820 5824 5828 5831 5834 5838 5841 5844 5846 5849 5851 5853 5855 5856 5858
5750 5749 5749 5749 5750 5751 5752 5754 5756 5758 5761 5763 5766 5769 5773 5777 5781 5786 5790 5794 5798 5802 5806 5810 5813 5817 5821 5824 5828 5831 5834 5837 5840 5843 5845 5847 5849 5850
5747 5746 5745 5745 5744 5745 5746 5747 5748 5750 5751 5754 5756 5758 5762 5766 5770 5774 5778 5783 5787 5791 5795 5799 5803 5807 5810 5814 5817 5821 5824 5828 5831 5834 5836 5838 5840 5842
5744 5743 5741 5741 5740 5740 5740 5740 5740 5741 5742 5744 5746 5749 5752 5755 5759 5763 5768 5772 5776 5780 5784 5788 5791 5795 5799 5803 5807 5810 5814 5817 5820 5823 5826 5828 5830 5833
5742 5740 5738 5737 5736 5735 5734 5734 5734 5734 5734 5735 5737 5739 5742 5745 5749 5752 5757 5760 5764 5768 5772 5777 5781 5784 5787 5791 5794 5798 5802 5805 5809 5812 5815 5818 5820 5822
5739 5737 5735 5733 5732 5730 5729 5728 5728 5727 5727 5728 5729 5731 5733 5736 5738 5742 5745 5750 5755 5759 5761 5765 5768 5772 5776 5779 5783 5786 5790 5793 5797 5801 5804 5806 5809 5812
5737 5735 5733 5731 5728 5727 5725 5724 5723 5721 5721 5722 5722 5723 5725 5727 5730 5733 5735 5738 5743 5746 5748 5753 5756 5760 5764 5767 5771 5774 5778 5781 5785 5789 5792 5795 5798 5801
5735 5732 5730 5728 5725 5723 5721 5720 5718 5717 5716 5716 5717 5717 5718 5719 5721 5724 5725 5729 5732 5735 5738 5742 5745 5748 5751 5755 5759 5762 5766 5770 5773 5777 5780 5784 5787 5789
5732 5730 5727 5724 5722 5720 5718 5716 5714 5713 5712 5711 5711 5711 5712 5713 5714 5715 5717 5719 5722 5725 5727 5731 5734 5736 5740 5743 5747 5751 5754 5758 5761 5765 5768 5771 5774 5777
5730 5727 5724 5722 5719 5717 5715 5713 5711 5709 5708 5707 5706 5706 5706 5706 5707 5708 5709 5711 5713 5716 5718 5721 5723 5725 5729 5733 5735 5739 5742 5745 5749 5752 5755 5758 5761 5764
5726 5724 5721 5719 5716 5714 5712 5709 5707 5706 5704 5703 5702 5701 5701 5701 5701 5701 5702 5703 5705 5707 5708 5710 5713 5715 5718 5722 5724 5727 5730 5733 5736 5740 5743 5746 5749 5752
5723 5720 5718 5715 5713 5711 5708 5706 5704 5702 5700 5699 5697 5696 5695 5695 5695 5695 5695 5696 5697 5698 5699 5701 5703 5705 5708 5710 5714 5716 5718 5721 5724 5728 5731 5733 5736 5739
5719 5716 5714 5711 5709 5707 5705 5703 5700 5698 5696 5695 5693 5692 5690 5689 5689 5689 5688 5689 5689 5690 5691 5692 5694 5695 5697 5700 5703 5705 5707 5710 5712 5715 5718 5721 5724 5727
5714 5712 5709 5707 5705 5703 5701 5699 5696 5694 5692 5690 5689 5687 5686 5684 5683 5682 5682 5682 5682 5683 5683 5684 5685 5686 5687 5689 5692 5694 5696 5698 5701 5703 5705 5708 5711 5714
5709 5707 5705 5702 5700 5698 5696 5694 5692 5690 5688 5686 5684 5682 5680 5679 5678 5677 5676 5675 5675 5675 5675 5675 5676 5676 5678 5679 5681 5683 5685 5687 5689 5691 5693 5696 5699 5702
5704 5701 5699 5697 5695 5693 5690 5688 5686 5684 5682 5680 5678 5677 5675 5673 5672 5671 5670 5669 5668 5668 5667 5667 5667 5667 5668 5670 5671 5672 5674 5675 5677 5679 5681 5684 5687 5690
5697 5695 5693 5691 5689 5687 5684 5682 5680 5678 5676 5674 5672 5670 5669 5667 5666 5664 5663 5662 5661 5660 5660 5659 5658 5658 5658 5660 5661 5661 5663 5664 5665 5667 5669 5672 5675 5677
5691 5688 5686 5684 5682 5680 5678 5676 5674 5671 5669 5667 5665 5664 5662 5660 5658 5657 5655 5654 5653 5652 5651 5650 5650 5649 5649 5649 5650 5651 5651 5653 5654 5656 5658 5660 5662 5665
5683 5681 5679 5677 5674 5672 5670 5668 5666 5664 5662 5659 5657 5655 5654 5652 5650 5649 5647 5645 5644 5643 5642 5642 5641 5640 5639 5639 5640 5641 5641 5642 5643 5645 5647 5649 5651 5653
5675 5673 5671 5668 5666 5664 5662 5659 5657 5655 5653 5650 5648 5646 5644 5642 5640 5639 5637 5636 5634 5633 5632 5632 5631 5630 5630 5629 5630 5631 5631 5632 5633 5634 5636 5638 5640 5642
5666 5663 5661 5659 5657 5654 5652 5650 5647 5645 5642 5640 5638 5635 5633 5631 5629 5627 5626 5625 5623 5622 5621 5621 5620 5620 5619 5619 5620 5620 5621 5622 5622 5623 5625 5627 5629 5631